Location: Bow
(51.5261°N, 0.0167°W)
Time: 13:24:55
(UTC+00:00)

SPOT 1/Viking Rocket - Pass Details

Date: 18 September 2020
Orbit: 777 x 794 km, 98.5° (Epoch: 21 October)

Event Time Altitude Azimuth Distance (km) Brightness Sun altitude
Exits shadow 21:14:24 81° 246° (WSW) 801 3.5 -27.2°
Maximum altitude 21:14:26 82° 255° (WSW) 801 3.5 -27.3°
Drops below altitude 10° 21:19:39 10° 344° (NNW) 2,352 6.8 -27.8°
Sets 21:21:59 0° 345° (NNW) 3,282 7.7 -28.1°
